Johnstone Strait: Past 24 Hour Conditions

 

La Perouse Bank - 46206

06:00 PM PDT 23 May 2018Buoy position: 48.83N 126.0W
Disclaimer

This table is a summary of hourly weather conditions for the past 24 hours.
Please note that these observations might not always be representative of weather conditions over their associated marine area.

Date / Time
(PDT)
Wind(knots) Wave height(m) Wave period(s) Pressure(kPa) Air tempC) Water tempC)
23 May 2018
18:00 WNW 16 gust 19 2.3 11.0 101.2 13 13
17:00 WNW 16 gust 19 2.7 11.0 101.2 13 13
16:00 WNW 16 gust 18 2.7 10.0 101.2 13 13
15:00 WNW 16 gust 19 2.6 10.0 101.2 13 13
14:00 WNW 14 gust 16 2.7 11.0 101.2 12 13
13:00 WNW 14 gust 18 2.6 13.0 101.2 12 13
12:00 WNW 12 gust 14 2.5 12.0 101.2 12 13
11:00 WNW 12 gust 16 2.3 11.0 101.2 12 13
10:00 NW 12 gust 16 2.2 11.0 101.1 12 13
9:00 NW 14 gust 18 2.2 12.0 101.1 12 13
8:00 NW 14 gust 19 2.1 11.0 101.1 12 13
7:00 WNW 16 gust 19 2.2 11.0 101.1 12 13
6:00 NW 16 gust 18 2.2 11.0 101.1 12 13
5:00 NW 16 gust 18 2.2 11.0 101.1 12 13
4:00 NW 16 gust 19 2.1 11.0 101.1 12 13
3:00 WNW 16 gust 19 2.1 12.0 101.1 13 13
2:00 WNW 16 gust 19 2.1 10.0 101.1 13 13
1:00 WNW 14 gust 18 1.9 10.0 101.1 13 13
0:00 NW 16 gust 19 2.0 10.0 101.1 13 13
22 May 2018
23:00 NW 16 gust 19 1.9 10.0 101.1 13 13
22:00 NW 16 gust 19 1.9 10.0 101.2 13 13
21:00 NW 16 gust 19 1.7 10.0 101.2 13 13
20:00 NW 16 gust 19 1.7 10.0 101.2 13 13
19:00 NW 16 gust 19 1.9 10.0 101.3 13 14
18:00 WNW 16 gust 19 1.8 10.0 101.3 13 14

Zoom-in to make a selection

Map of Pacific - Georgia Basin marine weather areas Sentry Shoal - 46131 Halibut Bank - 46146 La Perouse Bank - 46206 Discovery Island Esquimalt Harbour Kelp Reefs Malahat Race Rocks Lightstation Saturna Island Sheringham Point University of Victoria Victoria Gonzales Victoria Int'l Airport Ballenas Islands Campbell River Airport Comox Airport Entrance Island Fanny Island Nanaimo Airport Sisters Islets Estevan Point Port Alberni Tofino Airport Grief Point Howe Sound - Pam Rocks Powell River Airport Sechelt Squamish Airport Point Atkinson Sand Heads Lightstation Tsawwassen Ferry Terminal Vancouver Int'l Airport Vancouver Harbour West Vancouver
Legend:
buoy Buoy
land station Land Station

Pacific - Georgia Basin Area

Another Region

What we are doing

Date modified: